Weather reports worldwide

Advertisment
Biarritz, France (7602): temperature & dewpoint: 10.08.2018 13:00:00 - 16.08.2018 13:00:00 (CEST)Biarritz, France (7602): temperature 5cm: 10.08.2018 13:00:00 - 16.08.2018 13:00:00 (CEST)Biarritz, France (7602): temperature -20cm & temperature -100cm: 10.08.2018 13:00:00 - 16.08.2018 13:00:00 (CEST)Biarritz, France (7602): wind speed & gusts: 10.08.2018 13:00:00 - 16.08.2018 13:00:00 (CEST)Biarritz, France (7602): wind direction: 10.08.2018 13:00:00 - 16.08.2018 13:00:00 (CEST)Biarritz, France (7602): reduced air pressure: 10.08.2018 13:00:00 - 16.08.2018 13:00:00 (CEST)Biarritz, France (7602): visibility: 10.08.2018 13:00:00 - 16.08.2018 13:00:00 (CEST)Biarritz, France (7602): sunshine duration: 10.08.2018 13:00:00 - 16.08.2018 13:00:00 (CEST)Biarritz, France (7602): precipitation: 10.08.2018 13:00:00 - 16.08.2018 13:00:00 (CEST)
Date & Time tt [°C] td [°C] tt 5cm [°C] tt -20cm [°C] tt -100cm [°C] ff [km/h] ff [kn] fx [km/h] fx [kn] dd ppp [hPa] vv [km] sd [min] rr [mm]
16.08.2018 13:00:00 23,2 20,3 28,6 22,7 22,2 23 12 36 20 W 1017,4 19 8 0,0
16.08.2018 12:00:00 22,8 19,8 28,6 22,6 22,2 18 10 32 18 W 1017,3 19 39 0,0
16.08.2018 11:00:00 22,7 19,5 26,9 22,5 22,2 15 8 29 16 WSW 1017,1 19 8 0,0
16.08.2018 10:00:00 22,0 19,5 27,1 22,5 22,2 16 9 28 15 W 1016,7 20 54 0,0
16.08.2018 09:00:00 20,8 19,3 21,9 22,6 22,2 7 4 16 8 SW 1016,5 14 55 0,0
16.08.2018 08:00:00 18,6 17,9 20,9 22,7 22,2 7 4 11 6 SSW 1016,1 18 24 0,0
16.08.2018 07:00:00 18,4 17,7 21,0 22,8 22,2 6 4 10 6 SSW 1016,0 17 0 0,0
16.08.2018 06:00:00 18,6 17,9 21,2 22,9 22,2 6 4 9 5 SSW 1016,0 15 0 0,0
16.08.2018 05:00:00 18,7 18,0 21,0 23,0 22,2 6 3 8 4 SSW 1016,0 12 0 0,2
16.08.2018 04:00:00 18,8 18,1 20,5 23,2 22,2 5 3 7 4 SW 1016,2 12 0 0,0
16.08.2018 03:00:00 18,8 18,0 21,0 23,2 22,1 5 3 8 4 S 1016,4 14 0 0,0
16.08.2018 02:00:00 19,6 18,8 22,2 23,4 22,2 5 3 10 5 SSW 1016,7 19 0 0,0
16.08.2018 01:00:00 19,8 19,0 20,6 23,5 22,2 6 4 10 5 SW 1017,0 17 0 0,0
16.08.2018 00:00:00 19,8 18,8 21,9 23,6 22,2 5 3 8 4 S 1017,0 20 0 0,0
15.08.2018 23:00:00 20,6 19,1 22,3 23,7 22,2 5 3 8 4 SSW 1017,1 20 0 0,0
15.08.2018 22:00:00 22,4 19,8 25,0 23,8 22,2 3 2 18 10 NNE 1017,0 32 0 0,0
15.08.2018 21:00:00 22,9 19,7 26,1 23,9 22,2 14 7 33 18 N 1016,7 35 47 0,0
15.08.2018 20:00:00 23,6 19,1 27,5 23,9 22,2 17 9 26 14 N 1016,9 34 60 0,0
15.08.2018 19:00:00 24,2 18,6 31,7 23,9 22,2 16 9 27 14 N 1017,3 46 60 0,0
15.08.2018 18:00:00 24,6 18,5 32,8 23,8 22,2 16 9 26 14 N 1017,8 20 60 0,0
15.08.2018 17:00:00 24,9 18,6 33,6 23,5 22,2 11 6 29 16 N 1018,2 25 58 0,0
15.08.2018 16:00:00 26,2 17,3 31,2 23,3 22,2 17 9 28 15 NE 1018,5 60 49 0,0
15.08.2018 15:00:00 24,8 17,0 30,7 23,0 22,2 13 7 27 14 ENE 1019,3 40 47 0,0
15.08.2018 14:00:00 25,1 18,1 33,0 22,6 22,2 19 10 29 16 ENE 1019,8 46 60 0,0
15.08.2018 13:00:00 23,7 16,7 32,7 22,4 22,2 12 6 22 12 E 1020,3 38 60 0,0
15.08.2018 12:00:00 22,7 16,9 31,1 22,2 22,2 12 7 18 10 NE 1021,0 49 60 0,0
15.08.2018 11:00:00 21,4 16,6 28,6 22,1 22,2 11 6 19 11 E 1021,3 31 60 0,0
15.08.2018 10:00:00 20,0 16,6 22,8 22,1 22,2 8 4 16 8 E 1021,2 20 60 0,0
15.08.2018 09:00:00 18,3 16,8 18,8 22,2 22,2 4 2 7 4 E 1021,6 24 60 0,0
15.08.2018 08:00:00 16,1 15,5 15,3 22,4 22,2 5 3 7 4 ENE 1021,6 20 27 0,0
15.08.2018 07:00:00 15,5 15,0 14,9 22,5 22,2 5 3 10 5 E 1021,6 23 0 0,0
15.08.2018 06:00:00 15,4 14,8 15,9 22,6 22,2 7 4 10 5 ESE 1021,9 24 0 0,0
15.08.2018 05:00:00 16,0 15,2 16,4 22,8 22,2 6 4 8 5 SE 1022,2 30 0 0,0
15.08.2018 04:00:00 16,4 15,6 16,4 22,9 22,2 5 3 10 6 SE 1022,6 30 0 0,0
15.08.2018 03:00:00 16,5 15,5 16,3 23,1 22,2 6 4 9 5 SSE 1022,9 26 0 0,0
15.08.2018 02:00:00 17,3 16,0 17,9 23,2 22,2 5 3 8 4 SSE 1023,0 26 0 0,0
15.08.2018 01:00:00 17,7 16,4 19,6 23,3 22,2 5 3 10 5 SE 1023,1 29 0 0,0
15.08.2018 00:00:00 19,0 16,8 20,7 23,4 22,3 6 3 8 4 SSE 1023,2 43 0 0,0
14.08.2018 23:00:00 20,4 16,6 22,2 23,5 22,3 4 2 15 8 N 1022,8 58 0 0,0
14.08.2018 22:00:00 20,5 16,5 22,5 23,6 22,2 7 4 13 7 N 1022,6 54 0 0,0
14.08.2018 21:00:00 21,0 16,2 23,4 23,7 22,2 9 5 18 10 N 1022,3 60 30 0,0
14.08.2018 20:00:00 22,3 16,3 25,2 23,8 22,2 11 6 21 11 NNW 1022,1 39 60 0,0
14.08.2018 19:00:00 22,8 16,6 29,6 23,8 22,3 15 8 29 16 NW 1022,2 44 60 0,0
14.08.2018 18:00:00 23,3 16,1 29,4 23,7 22,3 16 8 27 15 NNW 1022,3 46 58 0,0
14.08.2018 17:00:00 24,0 17,3 30,1 23,5 22,3 16 9 34 18 NW 1022,4 20 52 0,0
14.08.2018 16:00:00 23,4 17,4 29,4 23,1 22,3 16 9 29 16 NW 1022,5 43 53 0,0
14.08.2018 15:00:00 23,1 16,6 30,3 22,8 22,3 18 10 29 16 NW 1022,4 34 55 0,0
14.08.2018 14:00:00 23,3 17,5 30,6 22,5 22,3 15 8 27 15 NNW 1022,4 60 54 0,0
14.08.2018 13:00:00 23,4 16,9 27,5 22,3 22,3 17 9 33 18 N 1022,2 20 52 0,0
14.08.2018 12:00:00 23,0 16,8 26,5 22,2 22,3 14 8 27 15 N 1021,9 20 28 0,0
14.08.2018 11:00:00 21,8 16,7 25,0 22,2 22,3 11 6 24 13 N 1021,8 48 0 0,0
14.08.2018 10:00:00 21,3 16,5 24,1 22,2 22,3 9 5 19 10 NW 1021,2 59 0 0,0
14.08.2018 09:00:00 21,0 16,6 22,9 22,2 22,3 5 3 15 8 W 1020,8 59 0 0,0
14.08.2018 08:00:00 20,1 15,7 21,9 22,3 22,3 5 3 14 8 SSE 1020,5 58 0 0,0
14.08.2018 07:00:00 19,7 16,0 22,1 22,4 22,3 13 7 27 15 NNW 1019,9 59 0 0,0
14.08.2018 06:00:00 20,4 16,2 22,6 22,5 22,3 10 5 23 12 NW 1019,5 60 0 0,0
14.08.2018 05:00:00 20,4 16,4 22,6 22,5 22,3 7 4 21 11 NW 1019,3 60 0 0,0
14.08.2018 04:00:00 20,4 15,6 22,6 22,6 22,3 11 6 21 12 WNW 1019,3 60 0 0,0
14.08.2018 03:00:00 20,5 17,3 22,9 22,7 22,3 16 9 35 19 NW 1019,2 50 0 0,0
14.08.2018 02:00:00 20,6 17,2 22,6 22,8 22,3 12 7 28 15 W 1019,4 42 0 0,0
14.08.2018 01:00:00 20,3 17,1 22,2 22,9 22,4 12 7 31 17 W 1019,2 60 0 0,0
14.08.2018 00:00:00 19,9 17,9 22,1 23,0 22,3 11 6 22 12 WSW 1018,9 46 0 0,0
13.08.2018 23:00:00 20,1 18,0 21,7 23,1 22,3 10 5 26 14 W 1018,9 48 0 0,2
13.08.2018 22:00:00 20,1 17,3 22,2 23,2 22,4 13 7 27 14 W 1018,3 52 0 0,0
13.08.2018 21:00:00 20,5 17,7 22,9 23,2 22,3 18 10 34 19 W 1018,0 57 19 0,0
13.08.2018 20:00:00 21,0 17,6 23,5 23,2 22,3 20 11 31 17 WNW 1017,6 53 7 0,0
13.08.2018 19:00:00 21,3 18,5 22,7 23,3 22,3 22 12 35 19 WNW 1017,7 20 8 0,0
13.08.2018 18:00:00 20,6 18,4 22,2 23,3 22,3 22 12 39 21 WNW 1017,5 4,8 1 1,2
13.08.2018 17:00:00 21,5 18,1 23,8 23,3 22,4 18 10 31 17 W 1017,3 33 0 0,0
13.08.2018 16:00:00 21,0 18,8 22,6 23,2 22,3 17 9 35 19 WNW 1017,3 16 0 0,4
13.08.2018 15:00:00 20,5 19,2 22,2 23,2 22,3 19 10 29 16 W 1017,3 8 1 0,8
13.08.2018 14:00:00 19,5 18,3 22,2 23,2 22,3 16 9 24 13 W 1017,4 2,7 0 2,2
13.08.2018 13:00:00 20,2 19,0 23,1 23,1 22,3 13 7 23 12 WSW 1017,3 5 4 0,2
13.08.2018 12:00:00 19,6 18,8 22,0 23,2 22,3 8 4 21 12 WNW 1017,2 1,8 0 2,3
13.08.2018 11:00:00 19,7 18,9 22,4 23,2 22,3 4 2 16 9 W 1016,6 3,5 0 0,4
13.08.2018 10:00:00 19,0 18,3 21,6 23,3 22,3 13 7 26 14 WNW 1016,3 4,1 0 2,0
13.08.2018 09:00:00 19,3 18,6 21,7 23,3 22,3 8 4 20 11 NW 1015,8 2,6 0 1,0
13.08.2018 08:00:00 19,5 18,3 22,0 23,4 22,3 11 6 19 10 NNW 1015,3 4,3 0 0,8
13.08.2018 07:00:00 20,3 19,1 21,5 23,5 22,3 4 2 16 8 NE 1014,8 4,4 0 0,6
13.08.2018 06:00:00 19,6 17,7 21,5 23,6 22,3 6 3 10 5 SW 1014,6 13 0 0,0
13.08.2018 05:00:00 19,8 17,2 21,9 23,7 22,3 3 2 6 3 SSW 1014,6 34 0 0,0
13.08.2018 04:00:00 19,5 17,3 21,9 23,8 22,3 5 3 6 4 S 1014,8 51 0 0,0
13.08.2018 03:00:00 19,5 17,6 21,9 23,9 22,3 4 2 8 4 S 1015,1 43 0 0,0
13.08.2018 02:00:00 19,3 17,8 21,3 24,1 22,3 4 2 12 7 S 1015,4 39 0 0,0
13.08.2018 01:00:00 19,7 18,5 21,6 24,2 22,3 5 3 15 8 SSW 1015,1 16 0 0,0
13.08.2018 00:00:00 20,4 18,7 22,1 24,4 22,3 7 4 20 11 WSW 1015,8 7 0 0,8
12.08.2018 23:00:00 22,0 19,0 24,5 24,5 22,3 12 6 27 15 W 1015,9 50 0 0,0
12.08.2018 22:00:00 22,2 19,0 24,7 24,6 22,3 16 9 24 13 W 1015,6 46 0 0,0
12.08.2018 21:00:00 22,3 19,3 25,1 24,7 22,3 12 7 29 16 W 1014,8 40 29 0,0
12.08.2018 20:00:00 22,6 19,6 25,6 24,8 22,3 18 10 33 18 W 1014,5 34 0 0,0
12.08.2018 19:00:00 22,6 19,6 25,7 24,8 22,3 20 11 32 17 W 1014,5 34 0 0,0
12.08.2018 18:00:00 23,2 19,8 28,0 24,7 22,3 23 12 32 17 W 1013,5 20 4 0,0
12.08.2018 17:00:00 23,7 20,0 29,1 24,5 22,3 18 10 28 15 WNW 1014,0 20 28 0,0
12.08.2018 16:00:00 23,6 19,7 29,7 24,2 22,3 18 10 29 15 WNW 1014,3 20 28 0,0
12.08.2018 15:00:00 24,3 20,2 32,5 23,8 22,3 16 8 24 13 NW 1014,7 19 60 0,0
12.08.2018 14:00:00 24,5 20,6 32,8 23,4 22,3 15 8 24 13 WNW 1014,6 38 58 0,0
12.08.2018 13:00:00 24,7 20,6 33,4 23,1 22,3 14 8 21 11 NW 1014,8 44 60 0,0
12.08.2018 12:00:00 24,9 20,2 30,9 22,9 22,3 5 3 15 8 NW 1014,9 20 60 0,0
12.08.2018 11:00:00 23,9 20,4 30,2 22,7 22,3 7 4 13 7 W 1015,2 20 60 0,0
12.08.2018 10:00:00 22,9 20,4 27,2 22,7 22,3 11 6 19 10 W 1015,3 18 58 0,0
12.08.2018 09:00:00 21,6 20,1 22,5 22,7 22,3 2 1 5 3 S 1015,1 19 60 0,0
12.08.2018 08:00:00 19,7 19,0 20,9 22,8 22,3 2 1 8 4 S 1015,2 9 30 0,0
12.08.2018 07:00:00 19,2 18,5 19,4 22,9 22,3 6 3 8 4 SSE 1015,2 5 0 0,0
12.08.2018 06:00:00 19,4 18,6 20,3 23,0 22,3 5 3 7 4 S 1015,5 9 0 0,0
12.08.2018 05:00:00 19,8 18,8 20,2 23,1 22,3 4 2 6 3 S 1015,9 14 0 0,0
12.08.2018 04:00:00 20,5 19,3 22,2 23,2 22,3 3 1 13 7 SSW 1016,6 19 0 0,0
12.08.2018 03:00:00 21,0 19,8 23,1 23,2 22,3 9 5 16 9 W 1017,1 20 0 0,0
12.08.2018 02:00:00 21,4 20,0 23,4 23,3 22,3 10 5 21 11 WSW 1017,8 19 0 0,0
12.08.2018 01:00:00 21,9 20,4 24,1 23,4 22,3 13 7 23 13 W 1018,3 30 0 0,0
12.08.2018 00:00:00 22,2 20,7 21,3 23,5 22,3 8 4 14 7 SSW 1018,4 28 0 0,0
11.08.2018 23:00:00 22,8 17,9 21,2 23,6 22,4 5 3 7 4 SE 1018,4 60 0 0,0
11.08.2018 22:00:00 24,4 17,4 24,6 23,7 22,4 5 3 18 10 ENE 1018,2 60 0 0,0
11.08.2018 21:00:00 26,4 16,9 27,7 23,8 22,3 8 4 21 11 NE 1018,1 60 44 0,0
11.08.2018 20:00:00 27,3 16,9 29,5 23,8 22,4 14 7 22 12 ENE 1018,2 57 60 0,0
11.08.2018 19:00:00 27,9 17,7 31,5 23,7 22,4 17 9 29 15 ENE 1018,6 58 60 0,0
11.08.2018 18:00:00 28,0 18,1 31,3 23,6 22,4 19 10 29 15 E 1018,8 42 60 0,0
11.08.2018 17:00:00 27,9 17,7 31,5 23,3 22,4 16 9 32 17 E 1019,3 20 60 0,0
11.08.2018 16:00:00 27,3 18,0 31,0 23,0 22,4 19 10 30 16 E 1020,1 23 60 0,0
11.08.2018 15:00:00 26,6 18,5 30,2 22,6 22,4 22 12 31 17 E 1021,2 50 60 0,0
11.08.2018 14:00:00 25,3 18,0 28,7 22,3 22,4 18 10 28 15 E 1021,8 19 60 0,0
11.08.2018 13:00:00 24,5 18,2 29,4 22,0 22,4 14 8 23 12 E 1022,4 36 60 0,0
11.08.2018 12:00:00 23,3 17,3 27,4 21,8 22,4 12 7 21 11 E 1023,1 20 60 0,0
11.08.2018 11:00:00 21,1 16,3 22,0 21,7 22,4 9 5 15 8 E 1023,5 32 37 0,0
11.08.2018 10:00:00 18,7 15,8 17,6 21,7 22,4 7 4 12 6 E 1024,0 25 24 0,0
11.08.2018 09:00:00 16,1 15,0 14,8 21,8 22,5 5 3 8 4 E 1024,2 20 29 0,0
11.08.2018 08:00:00 14,9 14,3 12,7 21,9 22,4 3 2 7 4 SE 1024,3 20 32 0,0
11.08.2018 07:00:00 14,1 13,5 11,5 22,1 22,5 5 3 8 4 SE 1024,4 19 0 0,0
11.08.2018 06:00:00 14,8 14,0 11,3 22,2 22,5 3 1 9 5 SSE 1024,3 31 0 0,0
11.08.2018 05:00:00 14,8 13,8 12,7 22,4 22,5 4 2 9 5 SE 1024,6 23 0 0,0
11.08.2018 04:00:00 16,4 13,5 11,9 22,5 22,5 3 1 5 3 E 1025,0 42 0 0,0
11.08.2018 03:00:00 16,2 14,2 12,6 22,7 22,5 2 1 11 6 ENE 1025,4 54 0 0,0
11.08.2018 02:00:00 16,4 13,5 13,4 22,8 22,5 8 4 12 7 SSE 1025,9 54 0 0,0
11.08.2018 01:00:00 17,0 13,5 14,2 23,0 22,5 7 4 13 7 E 1026,1 60 0 0,0
11.08.2018 00:00:00 18,2 13,3 15,0 23,1 22,5 4 2 13 7 E 1026,0 60 0 0,0
10.08.2018 23:00:00 19,7 13,6 17,8 23,3 22,5 8 4 16 9 NE 1025,6 60 0 0,0
10.08.2018 22:00:00 20,4 14,3 18,9 23,3 22,5 9 5 21 11 NNE 1025,1 55 0 0,0
10.08.2018 21:00:00 21,5 14,6 20,8 23,5 22,6 9 5 20 11 N 1024,6 59 17 0,0
10.08.2018 20:00:00 21,9 14,8 22,0 23,5 22,6 13 7 24 13 N 1024,5 60 7 0,0
10.08.2018 19:00:00 22,9 15,2 24,5 23,5 22,6 15 8 25 14 N 1024,5 35 52 0,0
10.08.2018 18:00:00 23,5 15,3 24,7 23,4 22,6 9 5 19 10 NNE 1024,4 20 25 0,0
10.08.2018 17:00:00 22,8 15,4 24,6 23,2 22,6 8 4 24 13 NE 1024,5 52 10 0,0
10.08.2018 16:00:00 23,5 15,0 26,1 23,0 22,6 11 6 23 12 E 1024,7 51 21 0,0
10.08.2018 15:00:00 23,4 15,4 25,3 22,7 22,6 15 8 29 15 ENE 1024,7 37 27 0,0
10.08.2018 14:00:00 23,1 14,9 23,8 22,4 22,7 14 8 27 15 ENE 1024,9 51 36 0,0
10.08.2018 13:00:00 22,0 14,9 24,3 22,1 22,7 14 7 25 14 E 1025,2 56 51 0,0

tt = temperature
td = dewpoint
tt 5cm = temperature 5cm
tt -20cm = temperature -20cm
tt -100cm = temperature -100cm
ff = wind speed
fx = gusts
dd = wind direction
ppp = reduced air pressure
vv = visibility
sd = sunshine duration
rr = precipitation

Next stations